TimeCST,TemperatureF,Dew PointF,Humidity,Sea Level PressureIn,VisibilityMPH,Wind Direction,Wind SpeedMPH,Gust SpeedMPH,PrecipitationIn,Events,Conditions,WindDirDegrees,DateUTC
12:53 AM,39.0,36.0,89,30.30,5.0,NNW,3.5,-,N/A,,Clear,330,2012-11-17 06:53:00
1:53 AM,37.0,35.1,93,30.30,3.0,Calm,Calm,-,N/A,,Clear,0,2012-11-17 07:53:00
2:53 AM,37.0,34.0,89,30.30,4.0,Calm,Calm,-,N/A,,Clear,0,2012-11-17 08:53:00
3:53 AM,35.1,33.1,92,30.31,4.0,Calm,Calm,-,N/A,,Clear,0,2012-11-17 09:53:00
4:53 AM,34.0,32.0,92,30.33,5.0,Calm,Calm,-,N/A,,Clear,0,2012-11-17 10:53:00
5:53 AM,34.0,30.9,89,30.34,5.0,Calm,Calm,-,N/A,,Clear,0,2012-11-17 11:53:00
6:25 AM,33.8,30.2,87,30.35,2.0,Calm,Calm,-,N/A,,Clear,0,2012-11-17 12:25:00
6:38 AM,33.8,30.2,87,30.35,3.0,Calm,Calm,-,N/A,,Clear,0,2012-11-17 12:38:00
6:53 AM,35.1,33.1,92,30.36,4.0,Calm,Calm,-,N/A,,Clear,0,2012-11-17 12:53:00
7:53 AM,46.0,41.0,83,30.38,10.0,NNE,5.8,-,N/A,,Clear,30,2012-11-17 13:53:00
8:53 AM,52.0,44.1,74,30.38,10.0,NE,6.9,-,N/A,,Clear,40,2012-11-17 14:53:00
9:53 AM,57.0,43.0,59,30.38,10.0,NNE,10.4,-,N/A,,Clear,20,2012-11-17 15:53:00
10:53 AM,59.0,41.0,51,30.37,10.0,East,10.4,-,N/A,,Clear,80,2012-11-17 16:53:00
11:53 AM,62.1,39.9,44,30.34,10.0,North,8.1,-,N/A,,Clear,10,2012-11-17 17:53:00
12:53 PM,62.1,39.0,43,30.30,10.0,North,11.5,-,N/A,,Clear,10,2012-11-17 18:53:00
1:53 PM,64.0,37.9,38,30.29,10.0,NNE,12.7,21.9,N/A,,Clear,20,2012-11-17 19:53:00
2:53 PM,63.0,36.0,37,30.29,10.0,NNE,8.1,-,N/A,,Clear,20,2012-11-17 20:53:00
3:53 PM,61.0,37.0,41,30.29,10.0,NNE,9.2,-,N/A,,Clear,20,2012-11-17 21:53:00
4:53 PM,55.0,37.9,53,30.30,10.0,North,3.5,-,N/A,,Clear,10,2012-11-17 22:53:00
5:53 PM,48.0,41.0,77,30.31,10.0,Calm,Calm,-,N/A,,Clear,0,2012-11-17 23:53:00
6:53 PM,45.0,39.9,82,30.33,10.0,Calm,Calm,-,N/A,,Clear,0,2012-11-18 00:53:00
7:53 PM,43.0,39.0,86,30.34,10.0,Calm,Calm,-,N/A,,Clear,0,2012-11-18 01:53:00
8:53 PM,41.0,37.9,89,30.34,10.0,Calm,Calm,-,N/A,,Clear,0,2012-11-18 02:53:00
9:53 PM,39.9,37.0,89,30.34,9.0,Calm,Calm,-,N/A,,Clear,0,2012-11-18 03:53:00
10:53 PM,39.0,36.0,89,30.33,9.0,Calm,Calm,-,N/A,,Clear,0,2012-11-18 04:53:00
11:53 PM,37.9,36.0,93,30.33,9.0,Calm,Calm,-,N/A,,Clear,0,2012-11-18 05:53:00